E8376 Weather Reports


time (UTC)temp
F
wind
direction
speed
knots
gust
knots
rain 1hr
in
rain 24hr
in
rain mn
in
humidity
%
barometer
mb
20260510104253 65 353 0.0 0.9 0.00 0.13 0.00 98 1016.7
20260510103753 65 0 0.0 1.7 0.00 0.15 0.00 98 1016.4
20260510103253 65 352 0.0 1.7 0.00 0.16 0.00 98 1016.4
20260510102737 65 0 0.0 1.7 0.00 0.18 0.00 98 1016.5
20260510102237 65 0 0.0 1.7 0.00 0.21 0.00 98 1016.4
20260510101737 65 0 0.0 1.7 0.00 0.22 0.00 98 1016.3
20260510101457 65 0 0.9 1.7 0.00 0.22 0.00 98 1016.2
20260510100958 65 18 0.9 1.7 0.00 0.22 0.00 98 1016.0
20260510100237 65 29 0.9 1.7 0.00 0.23 0.00 98 1016.0
20260510095739 65 15 0.0 1.7 0.00 0.24 0.00 98 1015.9
20260510095241 65 0 0.0 1.7 0.00 0.25 0.00 98 1016.0
20260510094741 65 0 0.0 1.7 0.00 0.32 0.00 98 1016.0
20260510094241 65 0 0.0 0.0 0.00 0.37 0.00 98 1016.0
20260510093742 65 0 0.0 0.0 0.00 0.42 0.00 98 1015.9
20260510093241 65 0 0.0 0.9 0.00 0.56 0.00 98 1015.8
20260510093226 65 0 0.9 1.7 0.00 0.65 0.00 98 1015.7
20260510092230 65 338 0.9 1.7 0.00 0.72 0.00 98 1015.7
20260510091938 65 297 0.0 1.7 0.00 0.82 0.00 98 1015.6
20260510091210 65 0 0.0 1.7 0.00 0.89 0.00 98 1015.5
20260510090709 65 0 0.9 1.7 0.00 0.89 0.00 98 1015.5
20260510090430 65 15 0.9 1.7 0.00 0.90 0.00 98 1015.3
20260510085714 65 6 0.0 1.7 0.00 0.93 0.00 98 1015.2
20260510085209 65 0 0.0 0.9 0.00 0.95 0.00 98 1015.2
20260510084710 65 0 0.0 0.0 0.00 1.06 0.00 98 1015.2
20260510084211 65 0 0.0 1.7 0.00 1.09 0.00 98 1015.1
20260510083713 65 0 0.0 1.7 0.00 1.20 0.00 98 1015.4
20260510083210 65 358 0.0 1.7 0.00 1.46 0.00 98 1015.3
20260510082711 65 319 0.9 1.7 0.00 1.55 0.00 98 1015.2
20260510082248 65 328 0.9 1.7 0.00 1.56 0.00 98 1015.0
20260510081157 65 18 0.0 1.7 0.00 1.56 0.00 98 1014.9
20260510080655 65 0 0.0 0.9 0.00 1.56 0.00 98 1014.8
20260510080156 65 0 0.0 1.7 0.00 1.56 0.00 98 1014.8
20260510075639 65 21 0.0 1.7 0.00 1.57 0.00 98 1014.8
20260510075139 65 0 0.0 0.0 0.00 1.59 0.00 98 1014.8
20260510074904 65 0 0.0 0.0 0.00 1.59 0.00 98 1014.8
20260510074236 64 0 0.0 0.9 0.00 1.59 0.00 98 1014.8
20260510073139 64 0 0.0 0.9 0.00 1.59 0.00 98 1014.8
20260510072639 64 5 0.0 0.9 0.00 1.59 0.00 98 1014.7
20260510072140 64 0 0.0 1.7 0.00 1.59 0.00 98 1014.8
20260510071640 64 0 0.0 1.7 0.00 1.59 0.00 98 1014.9
20260510071139 64 0 0.0 0.0 0.00 1.59 0.00 98 1014.9
20260510070639 64 0 0.0 0.0 0.00 1.59 0.00 98 1014.8
20260510070139 64 0 0.0 0.0 0.00 1.59 0.00 98 1014.9
20260510065639 64 0 0.0 0.0 0.00 1.59 0.00 98 1015.0
20260510065140 64 0 0.0 0.0 0.00 1.59 0.00 98 1014.9
20260510064640 64 0 0.0 0.0 0.00 1.59 0.00 98 1015.0
20260510064127 64 0 0.0 0.9 0.00 1.59 0.00 98 1015.0
20260510063626 64 0 0.0 0.9 0.00 1.59 0.00 98 1015.0
20260510063126 64 351 0.0 0.9 0.00 1.59 0.00 98 1015.0
20260510062626 64 0 0.0 0.0 0.00 1.59 0.00 97 1015.0
20260510062128 64 0 0.0 0.0 0.00 1.59 0.00 98 1014.9
20260510061627 64 0 0.0 0.0 0.00 1.59 0.00 98 1014.8
20260510061127 64 0 0.0 0.0 0.00 1.59 0.00 97 1014.8
20260510060853 64 0 0.0 0.0 0.00 1.59 0.00 98 1014.8
20260510060127 64 0 0.0 1.7 0.00 1.59 0.00 97 1014.8
20260510055626 64 0 0.9 1.7 0.00 1.59 0.00 97 1014.9
20260510055132 65 9 0.0 1.7 0.00 1.59 0.00 97 1014.8
20260510054627 65 0 0.0 0.0 0.00 1.59 0.00 97 1014.7
20260510054128 65 0 0.0 0.0 0.00 1.59 0.00 97 1014.7
20260510053627 65 0 0.0 1.7 0.00 1.59 0.00 97 1014.8
20260510053132 65 0 0.0 1.7 0.00 1.59 0.00 97 1014.8
20260510052612 65 27 0.0 1.7 0.00 1.59 0.00 97 1014.7
20260510052333 65 0 0.0 0.0 0.00 1.59 0.00 97 1014.7
20260510051613 65 0 0.0 0.0 0.00 1.59 0.00 97 1014.6
20260510051112 65 0 0.0 0.0 0.00 1.59 0.00 97 1014.7
20260510050612 65 0 0.0 0.9 0.00 1.59 0.00 97 1014.7
20260510050552 66 9 0.0 0.9 0.00 1.59 0.00 97 1014.6
20260510045613 66 0 0.0 0.0 0.00 1.59 1.59 97 1014.5
20260510045113 66 0 0.0 0.9 0.00 1.59 1.59 97 1014.5
20260510044844 66 0 0.0 1.7 0.00 1.59 1.59 97 1014.5
20260510044113 66 0 0.9 1.7 0.00 1.59 1.59 97 1014.5
20260510043613 66 13 0.0 1.7 0.00 1.59 1.59 97 1014.6
20260510043116 66 0 0.0 0.0 0.00 1.59 1.59 97 1014.6
20260510042616 66 0 0.0 0.0 0.00 1.59 1.59 97 1014.7
20260510042115 67 0 0.0 0.0 0.00 1.59 1.59 97 1014.8
20260510041616 67 0 0.0 0.9 0.00 1.59 1.59 97 1014.9
20260510041329 67 0 0.0 0.9 0.00 1.59 1.59 97 1014.9
20260510040829 67 0 0.0 0.9 0.00 1.59 1.59 97 1014.9
20260510035601 67 0 0.0 0.9 0.00 1.59 1.59 96 1014.9
20260510035102 67 2 0.0 0.9 0.00 1.59 1.59 96 1014.9
20260510034823 68 0 0.0 0.0 0.00 1.59 1.59 96 1014.9
20260510034102 68 0 0.0 0.0 0.00 1.59 1.59 96 1014.9
20260510033828 68 0 0.0 0.0 0.00 1.59 1.59 96 1015.0
20260510033102 68 0 0.0 0.0 0.00 1.59 1.59 96 1015.0
20260510032602 68 0 0.0 0.0 0.00 1.59 1.59 96 1014.9
20260510032102 68 0 0.0 0.0 0.00 1.59 1.59 96 1014.8
20260510031601 68 0 0.0 0.0 0.00 1.59 1.59 96 1014.7
20260510031102 69 0 0.0 0.0 0.00 1.59 1.59 96 1014.6
20260510030602 69 0 0.0 0.9 0.00 1.59 1.59 95 1014.4
20260510025544 69 357 0.0 0.9 0.00 1.59 1.59 95 1014.3
20260510025047 69 25 0.0 0.9 0.00 1.59 1.59 95 1014.2
20260510024548 69 0 0.0 0.9 0.00 1.59 1.59 95 1014.1
20260510024046 70 0 0.0 0.9 0.00 1.59 1.59 94 1013.9
20260510023546 70 7 0.0 0.9 0.00 1.59 1.59 94 1013.8
20260510023310 70 0 0.0 0.9 0.00 1.59 1.59 94 1013.8
20260510022813 70 0 0.0 1.7 0.00 1.59 1.59 93 1013.8
20260510022046 71 0 0.9 1.7 0.00 1.59 1.59 93 1013.6
20260510021546 71 0 0.9 1.7 0.00 1.59 1.59 92 1013.7
20260510021046 71 15 0.0 0.9 0.00 1.59 1.59 92 1013.6
20260510020546 71 0 0.0 1.7 0.00 1.59 1.59 92 1013.6
20260510020046 71 31 0.9 3.5 0.00 1.59 1.59 91 1013.6
20260510015530 71 353 0.9 3.5 0.00 1.59 1.59 91 1013.7
20260510015030 71 332 0.9 4.3 0.00 1.59 1.59 91 1013.7
20260510014522 71 40 1.7 4.3 0.00 1.59 1.59 91 1013.7
20260510014019 71 309 1.7 3.5 0.00 1.59 1.59 91 1013.6
20260510013515 71 269 1.7 4.3 0.00 1.59 1.59 91 1013.6
20260510013015 71 305 1.7 4.3 0.00 1.59 1.59 91 1013.4
20260510012516 72 290 1.7 4.3 0.00 1.59 1.59 92 1013.2
20260510012017 72 322 0.9 1.7 0.00 1.59 1.59 93 1013.0
20260510011517 72 0 0.9 2.6 0.00 1.59 1.59 93 1012.9
20260510011015 72 50 0.0 2.6 0.00 1.59 1.59 94 1012.8
20260510010515 72 0 0.0 1.7 0.00 1.59 1.59 94 1012.7
20260510010242 72 0 0.0 0.0 0.00 1.59 1.59 94 1012.5
20260510005516 72 0 0.0 0.0 0.00 1.59 1.59 94 1012.4
20260510005246 72 0 0.0 0.0 0.00 1.59 1.59 94 1012.3
20260510004515 72 0 0.0 0.0 0.00 1.59 1.59 93 1012.1
20260510004016 72 0 0.0 0.0 0.00 1.59 1.59 93 1012.1
20260510003512 72 0 0.0 0.0 0.00 1.59 1.59 92 1012.0
20260510003232 73 0 0.0 0.9 0.00 1.59 1.59 93 1012.0
20260510002512 73 0 0.0 0.9 0.00 1.59 1.59 93 1011.9
20260510002012 73 0 0.0 0.0 0.00 1.59 1.59 92 1011.9
20260510001738 73 0 0.0 0.0 0.00 1.59 1.59 92 1011.9
20260510001012 73 0 0.0 0.0 0.00 1.59 1.59 92 1011.8
20260510000508 73 0 0.0 0.0 0.00 1.59 1.59 91 1011.8
20260510000008 74 0 0.0 0.0 0.00 1.59 1.59 91 1011.8
20260509235729 74 0 0.0 0.0 0.00 1.59 1.59 90 1011.9
20260509235007 74 0 0.0 0.0 0.00 1.59 1.59 89 1011.9
20260509234735 74 0 0.0 0.9 0.00 1.59 1.59 89 1011.9
20260509234007 75 0 0.0 0.9 0.00 1.59 1.59 89 1011.9
20260509233508 75 0 0.0 0.0 0.00 1.59 1.59 87 1011.8
20260509233006 76 0 0.0 0.0 0.00 1.59 1.59 86 1011.8
20260509232950 77 0 0.0 1.7 0.00 1.59 1.59 85 1011.6
20260509232226 77 0 0.0 1.7 0.00 1.59 1.59 82 1011.5
20260509231508 77 0 0.0 1.7 0.00 1.59 1.59 84 1011.4
20260509231008 77 0 0.0 1.7 0.00 1.59 1.59 80 1011.5
20260509231000 77 0 0.0 1.7 0.00 1.59 1.59 81 1011.4
20260509230236 77 0 0.0 0.9 0.00 1.59 1.59 82 1011.4
20260509225508 77 0 0.0 0.9 0.00 1.59 1.59 80 1011.4
20260509225007 76 0 0.0 2.6 0.00 1.59 1.59 83 1011.4
20260509224950 77 0 0.0 2.6 0.00 1.59 1.59 81 1011.5
20260509224231 78 53 0.9 2.6 0.00 1.59 1.59 79 1011.4
20260509223503 78 352 0.9 2.6 0.00 1.59 1.59 77 1011.3
20260509223004 77 327 0.9 2.6 0.00 1.59 1.59 79 1011.3
20260509222450 77 23 0.9 2.6 0.00 1.59 1.59 81 1011.2
20260509221947 76 349 0.9 2.6 0.00 1.59 1.59 81 1011.3
20260509221713 76 0 0.9 1.7 0.00 1.59 1.59 83 1011.2
20260509220946 75 314 1.7 3.5 0.00 1.59 1.59 83 1011.1
20260509220716 75 4 0.9 3.5 0.00 1.59 1.59 83 1011.3
20260509215946 75 353 0.0 1.7 0.00 1.59 1.59 86 1011.3
20260509215446 75 0 0.0 1.7 0.00 1.59 1.59 85 1011.2
20260509214938 75 27 0.0 1.7 0.00 1.59 1.59 83 1011.4
20260509214433 75 321 0.0 1.7 0.00 1.59 1.59 83 1011.5
20260509213933 75 0 0.9 2.6 0.00 1.59 1.59 81 1011.4
20260509213708 75 0 0.9 2.6 0.00 1.59 1.59 82 1011.4
20260509212919 74 281 0.9 2.6 0.00 1.59 1.59 84 1011.4
20260509212419 74 268 0.9 2.6 0.00 1.59 1.59 83 1011.5
20260509211918 74 0 0.9 2.6 0.00 1.59 1.59 84 1011.6
20260509211418 74 346 0.9 1.7 0.00 1.59 1.59 84 1011.7
20260509210918 74 0 0.9 1.7 0.00 1.59 1.59 86 1011.7
20260509210419 75 0 0.0 1.7 0.00 1.59 1.59 85 1011.5
20260509210140 74 0 0.0 0.9 0.00 1.59 1.59 85 1011.6
20260509205419 74 351 0.0 0.9 0.00 1.59 1.59 83 1011.5
20260509204919 74 0 0.0 1.7 0.00 1.59 1.59 85 1011.6
20260509204419 73 0 0.9 3.5 0.00 1.59 1.59 86 1011.5
20260509203905 73 39 0.9 3.5 0.00 1.59 1.59 86 1011.8
20260509203404 73 24 0.9 2.6 0.00 1.59 1.59 87 1011.7
20260509203128 73 27 0.9 2.6 0.00 1.59 1.59 89 1011.9
20260509202404 73 27 0.9 2.6 0.00 1.59 1.59 87 1012.0
20260509201904 73 354 0.9 2.6 0.00 1.59 1.59 88 1011.9
20260509201406 73 0 0.9 2.6 0.00 1.59 1.59 87 1012.2
20260509200853 73 308 0.9 1.7 0.00 1.59 1.59 89 1012.0
20260509200405 73 62 0.0 1.7 0.00 1.59 1.59 88 1012.0
20260509195852 73 0 0.9 2.6 0.00 1.59 1.59 87 1012.2
20260509195353 73 24 1.7 2.6 0.00 1.59 1.59 87 1012.3
20260509194854 73 24 0.9 2.6 0.00 1.59 1.59 87 1012.5
20260509194543 73 357 1.7 3.5 0.00 1.59 1.59 88 1012.3
20260509194539 74 50 0.9 4.3 0.00 1.59 1.59 85 1012.3
20260509194516 73 243 0.0 1.7 0.00 1.59 1.59 90 1012.1
20260509194417 73 0 0.9 2.6 0.00 1.59 1.59 88 1012.3
20260509194121 73 39 1.7 3.5 0.00 1.59 1.59 86 1012.4
20260509192353 74 50 0.9 4.3 0.00 1.59 1.59 85 1012.3
20260509191850 74 45 0.9 4.3 0.00 1.59 1.59 86 1012.1
20260509191348 73 0 1.7 4.3 0.00 1.59 1.59 85 1012.2
20260509190836 73 39 1.7 7.0 0.00 1.59 1.59 87 1012.1
20260509190553 73 265 1.7 7.0 0.00 1.59 1.59 88 1012.3
20260509185820 73 51 0.9 2.6 0.00 1.59 1.59 88 1012.0
20260509185309 73 0 0.9 2.6 0.00 1.59 1.59 91 1012.1
20260509184806 72 33 0.9 2.6 0.00 1.59 1.59 90 1012.5
20260509184305 72 0 0.0 0.9 0.00 1.59 1.59 92 1012.3
20260509183806 72 0 0.0 0.0 0.00 1.59 1.59 91 1012.5
20260509183306 72 0 0.0 0.0 0.00 1.59 1.59 92 1012.4
20260509183029 72 0 0.0 0.9 0.00 1.59 1.59 90 1012.6
20260509182526 72 12 0.0 0.9 0.00 1.59 1.59 89 1012.7
20260509181807 72 234 0.0 0.9 0.00 1.59 1.59 90 1012.6
20260509181307 72 0 0.0 1.7 0.00 1.59 1.59 89 1012.6
20260509180806 72 0 0.0 1.7 0.00 1.59 1.59 90 1012.5
20260509180305 72 0 0.0 1.7 0.00 1.59 1.59 90 1012.4
20260509175806 72 0 0.0 1.7 0.00 1.59 1.59 91 1012.5
20260509175307 73 0 0.9 2.6 0.00 1.59 1.59 89 1012.7
20260509174806 73 31 0.0 2.6 0.00 1.59 1.59 88 1012.7
20260509174307 73 0 0.0 0.9 0.00 1.59 1.59 87 1012.8
20260509173751 73 29 0.0 2.6 0.00 1.59 1.59 88 1012.8
20260509173254 73 277 0.0 2.6 0.00 1.59 1.59 90 1012.8
20260509172754 72 0 0.9 2.6 0.00 1.59 1.59 89 1012.9
20260509172255 72 0 1.7 3.5 0.00 1.59 1.59 89 1013.0
20260509171755 72 50 1.7 3.5 0.00 1.59 1.59 87 1013.0
20260509171255 73 12 0.9 2.6 0.00 1.59 1.59 88 1013.0
20260509170755 73 31 0.9 2.6 0.00 1.59 1.59 88 1013.0
20260509170513 73 0 0.0 2.6 0.00 1.59 1.59 87 1013.1
20260509165754 73 269 0.0 2.6 0.00 1.59 1.59 89 1013.1
20260509165522 72 328 0.9 2.6 0.00 1.59 1.59 89 1013.2
20260509164754 72 0 0.9 2.6 0.00 1.59 1.59 88 1013.4
20260509164501 72 25 0.0 1.7 0.00 1.59 1.59 89 1013.2
20260509163724 72 333 0.0 0.9 0.00 1.59 1.59 90 1013.2
20260509163223 72 0 0.0 0.9 0.00 1.59 1.59 91 1013.1
20260509162724 71 0 0.0 1.7 0.00 1.59 1.59 90 1013.1
20260509162209 71 238 0.9 1.7 0.00 1.59 1.59 92 1013.0
20260509161925 71 0 0.9 2.6 0.00 1.59 1.59 93 1012.9
20260509161152 70 44 0.9 4.3 0.00 1.59 1.59 93 1013.0
20260509160653 70 33 0.9 4.3 0.00 1.59 1.59 92 1012.9
20260509160152 70 0 0.0 1.7 0.00 1.59 1.59 94 1012.8
20260509155912 69 0 0.9 1.7 0.00 1.59 1.59 95 1012.9
20260509155152 69 0 0.9 1.7 0.00 1.59 1.59 95 1013.0
20260509154652 70 31 0.0 1.7 0.00 1.59 1.59 95 1013.0
20260509154633 70 30 0.0 1.7 0.00 1.59 1.59 93 1013.1
20260509153654 70 304 0.0 1.7 0.00 1.59 1.59 94 1012.8
20260509153151 69 0 0.0 0.9 0.00 1.59 1.59 95 1012.8
20260509152652 69 0 0.0 0.9 0.00 1.59 1.59 95 1012.8
20260509152152 69 0 0.0 0.0 0.00 1.59 1.59 96 1012.8
20260509151652 69 0 0.0 0.0 0.00 1.59 1.59 95 1012.9
20260509151413 69 0 0.0 0.0 0.00 1.59 1.59 94 1012.9
20260509150914 69 0 0.0 0.0 0.00 1.59 1.59 94 1012.9
20260509150139 69 0 0.0 0.9 0.00 1.59 1.59 94 1012.8
20260509145639 69 0 0.0 0.9 0.00 1.59 1.59 95 1012.7
20260509145139 69 0 0.0 0.0 0.00 1.59 1.59 95 1012.7
20260509144639 69 0 0.0 0.9 0.00 1.59 1.59 95 1012.6
20260509144139 69 0 0.0 0.9 0.00 1.59 1.59 95 1012.6
20260509143638 69 0 0.0 0.9 0.00 1.59 1.59 96 1012.8
20260509143138 69 0 0.0 0.9 0.00 1.59 1.59 96 1012.8
20260509142901 68 283 0.0 0.9 0.00 1.59 1.59 97 1012.7
20260509142139 68 0 0.0 0.0 0.00 1.59 1.59 97 1012.7
20260509141640 68 0 0.0 0.0 0.00 1.59 1.59 97 1012.9
20260509141402 68 0 0.0 2.6 0.00 1.59 1.59 97 1013.1
20260509140639 68 0 0.9 2.6 0.00 1.59 1.59 97 1013.2
20260509140348 68 332 0.9 2.6 0.00 1.59 1.59 97 1013.3
20260509135625 67 345 0.9 2.6 0.00 1.59 1.59 98 1013.3
20260509135129 67 0 0.0 1.7 0.00 1.59 1.59 98 1013.3
20260509134615 67 311 0.0 1.7 0.00 1.59 1.59 98 1013.3
20260509134110 67 0 0.0 1.7 0.00 1.59 1.59 98 1013.6
20260509133610 67 0 0.0 0.9 0.00 1.59 1.59 98 1013.5
20260509133110 67 328 0.0 0.9 0.00 1.59 1.59 98 1013.5
20260509132612 67 0 0.0 0.0 0.00 1.59 1.59 98 1013.4
20260509132110 67 0 0.0 1.7 0.00 1.59 1.59 98 1013.5
20260509131610 67 11 0.0 1.7 0.00 1.59 1.59 98 1013.5
20260509131109 67 0 0.0 0.0 0.00 1.59 1.59 98 1013.5
20260509130609 67 0 0.0 0.0 0.00 1.59 1.59 98 1013.6
20260509130112 67 0 0.0 0.0 0.00 1.59 1.59 98 1013.6
20260509125829 67 0 0.0 0.0 0.00 1.59 1.59 98 1013.6
20260509125123 67 0 0.0 0.0 0.00 1.59 1.59 98 1013.5
20260509124610 67 0 0.0 1.7 0.00 1.59 1.59 98 1013.6
20260509124110 66 0 0.9 1.7 0.00 1.59 1.59 98 1013.7
20260509123610 66 0 0.9 1.7 0.00 1.59 1.59 98 1013.4
20260509123054 66 333 0.9 1.7 0.00 1.59 1.59 98 1013.5
20260509122554 66 323 0.9 2.6 0.00 1.59 1.59 98 1013.1
20260509122054 66 0 1.7 2.6 0.00 1.59 1.59 98 1012.7
20260509121554 66 1 1.7 2.6 0.00 1.59 1.59 98 1012.4
20260509121055 66 358 1.7 2.6 0.00 1.59 1.59 98 1012.2
20260509120555 66 321 0.9 1.7 0.00 1.59 1.59 98 1012.0
20260509120055 66 220 0.9 2.6 0.02 1.59 1.59 98 1011.6
20260509115554 65 51 1.7 3.5 0.04 1.59 1.59 98 1011.8
20260509115054 65 352 1.7 6.1 0.08 1.59 1.59 98 1011.8
20260509114554 65 13 2.6 7.0 0.11 1.59 1.59 98 1011.7
20260509114054 65 318 3.5 7.0 0.13 1.59 1.59 98 1011.6
20260509113559 65 6 1.7 4.3 0.15 1.59 1.59 98 1010.7
20260509113538 65 326 0.9 2.6 0.17 1.59 1.59 98 1010.1
20260509112559 65 15 0.9 3.5 0.19 1.59 1.59 98 1009.8
20260509112059 65 337 1.7 4.3 0.21 1.59 1.59 98 1009.8
20260509112047 65 43 1.7 4.3 0.22 1.59 1.59 98 1009.8
20260509111055 65 79 1.7 3.5 0.22 1.59 1.59 98 1009.9
20260509110559 65 0 0.9 1.7 0.22 1.58 1.58 98 1010.4
20260509110042 65 45 0.0 1.7 0.21 1.57 1.57 98 1010.9
20260509105542 65 0 0.0 0.9 0.19 1.54 1.54 98 1011.4
20260509105041 65 0 0.0 0.9 0.19 1.51 1.51 98 1012.3